Regional Weather Roundup
Issued by NWS Charleston, WV

Home | Current Version | Previous Version | Graphics & Text | Print | Product List | Glossary On
Versions: 1 2 3 4 5 6 7 8 9 10 11 12 13 14 15 16 17 18 19 20 21 22 23 24 25 26 27 28 29 30 31 32 33 34 35 36 37 38 39 40 41 42 43 44 45 46 47 48 49 50
000
ASUS41 KRLX 281010
RWRRLX
West Virginia Regional Weather Roundup
National Weather Service Charleston WV
600 AM EDT THU MAY 28 2015

Note: "fair" indicates few or no clouds below 12,000 feet with no
significant weather and/or obstructions to visibility.

WVZ003-281100-
Northern Panhandle of West Virginia

CITY           SKY/WX    TMP DP  RH WIND       PRES   REMARKS
WHEELING       NOT AVBL
$$

WVZ009-281100-
Northwest West Virginia

CITY           SKY/WX    TMP DP  RH WIND       PRES   REMARKS
PARKERSBURG    PTCLDY    63  59  87 CALM      30.21R
$$

WVZ006-281100-
Western West Virginia

CITY           SKY/WX    TMP DP  RH WIND       PRES   REMARKS
HUNTINGTON     MOCLDY    61  60  97 SE3       30.19R
$$

WVZ015-281100-
West Central West Virginia

CITY           SKY/WX    TMP DP  RH WIND       PRES   REMARKS
CHARLESTON     MOCLDY    64  62  93 CALM      30.20R
$$

WVZ022-031-281100-
North Central West Virginia

CITY           SKY/WX    TMP DP  RH WIND       PRES   REMARKS
CLARKSBURG     MOCLDY    61  60  97 CALM      30.20R
MORGANTOWN     MOCLDY    63  59  87 S3        30.20R
$$

WVZ025-035-042-045-281100-
Southern West Virginia

CITY           SKY/WX    TMP DP  RH WIND       PRES   REMARKS
BECKLEY        CLOUDY    61  58  90 CALM      30.27R
LOGAN          CLOUDY    68  63  83 CALM      30.19S
BLUEFIELD      MOCLDY    63  55  75 SW6       30.28R
LEWISBURG      PTCLDY    58  56  92 CALM      30.26R
$$

WVZ047-281100-
Northern Mountains of West Virginia

CITY           SKY/WX    TMP DP  RH WIND       PRES   REMARKS
ELKINS         CLOUDY    59  57  93 CALM      30.25R
$$

WVZ052-281100-
Eastern Panhandle of West Virginia

CITY           SKY/WX    TMP DP  RH WIND       PRES   REMARKS
MARTINSBURG    CLEAR     63  61  93 CALM      30.16R FOG
PETERSBURG     PTCLDY    58  56  92 CALM      30.20R FOG
$$



USA.gov is the U.S. government's official web portal to all federal, state and local government web resources and services.